Location: Dallag-Zakor
(42.1503°N, 44.3500°E)
Time: 16:35:16
(UTC+00:00)

Daily predictions for brighter satellites

Satellite Brightness Start Highest point End
(mag) Time Altitude Azimuth Time Altitude Azimuth Time Altitude Azimuth
Cosmos 1470 Rocket 4.2 17:04:54 10° N 17:09:01 39° ENE 17:13:04 10° SSE
Cosmos 1766 3.7 17:05:59 10° N 17:09:36 42° ENE 17:13:09 10° SSE
Atlas Centaur 2 3.8 17:03:11 10° SW 17:10:09 32° SSE 17:17:16 10° ESE
CZ-4 R/B 3.2 17:07:17 10° SSW 17:10:46 30° W 17:14:20 10° NNW
DELTA 2 DEB (DPAF) 4.1 17:08:22 10° NNE 17:12:37 88° W 17:16:49 10° SSW
SL-16 R/B 4.0 17:10:49 10° N 17:14:41 18° NE 17:18:31 10° E
Cosmos 1666 Rocket 3.6 17:12:11 10° N 17:16:32 84° W 17:20:52 10° S
Cosmos 2369 4.1 17:11:08 10° NNW 17:16:45 52° ENE 17:22:18 10° SE
Cosmos 2082 Rocket 2.2 17:11:31 10° SSW 17:17:10 67° ESE 17:22:50 10° NNE
ERS-1 Rocket 4.1 17:14:01 10° SE 17:18:15 28° ENE 17:22:31 10° N
Cosmos 1763 Rocket 4.1 17:15:39 10° N 17:20:40 44° ENE 17:25:36 10° SE
Resurs 01 Rocket 2.6 17:20:25 10° S 17:24:40 48° W 17:28:56 10° NNW
IRIDIUM 103 4.5 17:20:17 10° N 17:25:27 60° E 17:30:36 10° SSE
SPOT 5 2.9 17:24:46 10° SSE 17:28:55 50° ENE 17:33:08 10° N
Lacrosse 5 rocket 3.3 17:28:31 10° WNW 17:31:44 21° WSW 17:34:50 10° S
Cosmos 1933 Rocket 4.3 17:29:12 10° N 17:33:20 37° ENE 17:37:08 12° SE
IRS-1C Rocket 4.3 17:32:12 10° SSE 17:37:19 56° ENE 17:42:28 10° N
Cosmos 1470 3.1 17:35:18 10° N 17:38:50 42° ENE 17:41:50 13° SSE
Cosmos 1697 Rocket 4.1 17:38:00 10° NW 17:43:02 35° WSW 17:48:03 10° SSW
IRIDIUM 106 4.3 17:38:32 10° N 17:43:47 88° E 17:49:00 10° S
Cosmos 1626 4.3 17:42:24 10° SW 17:44:58 22° WNW 17:47:34 10° NNW
Ariane Rocket 3.8 17:42:50 13° SE 17:46:53 36° ENE 17:51:31 10° N
Cosmos 1908 3.8 17:43:39 10° N 17:47:00 35° ENE 17:49:22 16° SE
Cosmos 468 Rocket 4.4 17:42:31 10° N 17:47:37 50° ENE 17:51:43 15° SE
MOS 1 4.4 17:42:39 10° SSE 17:48:18 82° WSW 17:53:59 10° NNW
Cosmos 2251 Rocket 4.3 17:43:09 10° SW 17:48:20 57° WNW 17:53:35 10° NNE
BREEZE-M DEB (TANK) 4.5 17:45:27 10° WNW 17:49:36 72° NNE 18:03:13 10° E
COSMOS 2406 3.3 17:44:11 10° SSW 17:49:56 83° WNW 17:55:43 10° NNE
Cosmos 1674 2.7 17:47:55 10° SSW 17:51:23 69° W 17:54:50 10° N
Cosmos 1553 Rocket 4.0 17:46:52 10° N 17:53:03 76° E 17:59:06 11° SSE
SPOT 3 Rocket 4.3 17:51:01 15° SE 17:54:53 39° ENE 17:59:40 10° N
MetOp-B 4.2 17:50:30 10° SSE 17:55:51 86° WSW 18:01:15 10° NNW
KORONAS-FOTON 3.8 17:52:31 10° S 17:56:13 82° W 17:59:58 10° N
Cosmos 1842 3.4 17:55:59 10° SSW 17:59:36 67° W 18:03:15 10° N
Cosmos 2322 Rocket 3.7 17:55:02 10° N 17:59:39 25° NE 18:03:52 11° ESE
Cosmos 1980 Rocket 2.7 17:54:25 10° NNW 17:59:59 55° WSW 18:05:19 11° S
ARGOS Delta rocket 3.8 17:59:52 11° S 18:04:09 77° W 18:08:35 10° NNW
Cosmos 2266 Rocket 4.2 18:02:14 12° SSE 18:07:57 56° E 18:14:11 10° NNE
Cosmos 2278 4.1 18:03:07 10° NNW 18:08:43 55° ENE 18:12:38 20° SE
Okean-O 4.0 18:08:41 10° SSW 18:12:43 35° W 18:16:46 10° NNW
SJ 16-02 3.3 18:15:28 13° E 18:15:31 13° E 18:17:31 10° ENE
EXPRESS MD2 3.9 18:15:05 10° W 18:17:54 36° NNW 18:20:02 10° NE
Cosmos 540 Rocket 3.5 18:13:12 10° NNW 18:18:22 80° WSW 18:21:58 20° SSE
Cosmos 1954 Rocket 4.3 18:13:39 10° SSW 18:18:55 69° WNW 18:24:12 10° NNE
SL-08 ROCKET BODY 4.5 18:15:04 14° S 18:20:15 64° E 18:26:16 10° NNE
Cosmos 2237 4.4 18:14:40 10° NNW 18:20:22 60° ENE 18:23:58 23° SE
USA 245 3.1 18:19:23 25° S 18:21:09 72° W 18:25:02 10° NNW
Landsat 5 4.1 18:17:28 10° NNE 18:21:10 35° E 18:22:37 27° SE
Terra 1.8 18:20:23 20° S 18:23:41 84° WSW 18:28:25 10° NNW
Landsat 4 3.4 18:25:11 31° SSE 18:26:42 80° ENE 18:30:09 10° N
Cosmos 1400 Rocket 2.7 18:25:01 24° S 18:27:13 66° E 18:31:04 10° NNE
BREEZE-M DEB (TANK) 3.6 18:24:00 10° WSW 18:27:31 75° NNW 18:39:39 10° ENE
Cosmos 676 Rocket 4.3 18:22:55 10° SSW 18:28:13 70° WNW 18:33:33 10° NNE
Cosmos 2219 Rocket 4.2 18:24:29 10° N 18:28:19 18° NE 18:32:07 10° E
Cosmos 1733 Rocket 4.1 18:24:40 10° NNE 18:28:36 31° ENE 18:30:14 24° ESE
Cosmos 2228 Rocket 3.5 18:29:55 28° SSE 18:31:56 46° E 18:36:18 10° NNE
Cosmos 1707 4.2 18:28:55 10° SW 18:32:12 33° WNW 18:35:30 10° N
Tiangong -1.8 18:29:41 10° W 18:32:45 47° SSW 18:33:09 44° S
USA 234 4.0 18:28:15 10° NE 18:34:36 56° NNW 18:40:56 10° WSW
Meteor 1-15 Rocket 4.1 18:29:50 10° N 18:35:25 80° E 18:38:47 25° SSE
Meteor 2-10 Rocket 3.8 18:29:55 10° N 18:35:28 60° ENE 18:38:20 27° SSE
SeaSat 1 3.0 18:32:33 20° S 18:35:45 49° WSW 18:40:32 10° NW
SL-4 R/B 4.3 18:32:51 10° WNW 18:36:02 24° N 18:39:23 10° NE
Okean O Rocket 4.5 18:36:06 10° W 18:37:00 11° W 18:37:53 10° WNW
Meteor 1-23 Rocket 4.2 18:34:28 19° S 18:38:36 75° E 18:44:19 10° NNE
ATLAS CENTAUR R/B 1.5 18:42:27 36° ESE 18:42:27 36° ESE 18:45:28 10° NE
Cosmos 2315 Rocket 4.1 18:39:31 10° N 18:45:53 71° E 18:49:30 27° SSE
Cosmos 1869 Rocket 4.1 18:45:16 10° NNW 18:49:36 55° W 18:52:05 24° SSW
Cosmos 1953 4.2 18:47:37 10° NNE 18:50:06 16° ENE 18:50:38 16° E
MOS 1 Rocket 4.0 18:47:29 22° S 18:50:56 61° W 18:56:16 10° NNW
Cosmos 2360 Rocket 2.8 18:46:24 10° NNW 18:51:52 46° ENE 18:54:37 26° ESE
Okean 1-7 4.2 18:51:50 26° E 18:52:18 26° E 18:55:54 10° NNE
Meteor 1-12 Rocket 4.3 18:49:24 10° N 18:55:28 90° SSE 18:58:42 29° S
Cosmos 1455 4.1 18:54:01 10° NE 18:56:07 15° ENE 18:56:14 15° ENE
Cosmos 2333 Rocket 2.8 18:50:51 10° NNW 18:56:23 46° ENE 18:59:09 27° ESE
ERS-1 Rocket 4.2 18:53:16 15° SSW 18:56:52 35° W 19:01:28 10° NNW
Cosmos 841 Rocket 3.5 18:53:04 10° NNW 18:58:21 82° WSW 19:00:41 34° SSE
Atlas Centaur 2 3.6 18:51:23 10° WSW 18:58:44 35° S 19:01:23 29° SSE
SL-16 R/B 2.2 18:53:45 10° NNW 18:59:26 78° WSW 19:02:05 33° SSE
Spot 2 Rocket 4.3 18:58:06 20° SSW 19:01:11 43° W 19:06:02 10° NNW
Timation 1 Rocket 4.4 18:56:47 10° SSW 19:02:43 77° WNW 19:08:42 10° NNE
SL-14 R/B 3.5 19:07:06 35° SW 19:08:29 60° W 19:12:14 10° N
Cosmos 1833 4.2 19:06:20 33° S 19:08:46 61° ESE 19:14:19 10° NNE
RESURS DK-1 2.2 19:05:04 10° NNW 19:09:10 85° ENE 19:09:59 56° SSE
Aureole 3 3.1 19:11:00 60° SSE 19:11:31 71° E 19:15:51 10° NNE
ATLAS 2AS CENTAUR R/B 2.9 19:10:15 10° NNW 19:17:01 61° NE 19:20:28 29° ESE
Cosmos 1300 2.9 19:14:54 10° NNW 19:18:22 52° W 19:18:52 47° SW
Cosmos 1703 Rocket 4.4 19:18:36 33° E 19:18:51 33° E 19:22:53 10° NNE
Cosmos 1862 Rocket 3.6 19:18:42 40° SSW 19:20:12 72° W 19:24:37 10° N
Meteor 1-16 Rocket 4.4 19:15:36 10° N 19:21:32 70° E 19:23:43 40° SSE
Cosmos 1346 Rocket 3.0 19:22:14 10° NNW 19:26:03 59° W 19:26:36 52° SW
Cosmos 2333 4.4 19:23:12 10° NNW 19:28:56 64° ENE 19:31:00 39° SE
Meteor 1-4 Rocket 3.0 19:37:50 46° NNW 19:37:50 46° NNW 19:40:09 10° N
Cosmos 1241 Rocket 4.3 19:35:13 34° SSW 19:38:05 75° ESE 19:44:19 10° NE
ARIANE 5 R/B 2.4 19:40:03 64° SE 19:40:35 75° ENE 19:44:55 10° N
CZ-3 Stage 3 4.2 19:02:25 10° W 19:40:37 52° SSW 19:45:42 31° SE
COSMOS 2455 4.1 19:42:48 24° ESE 19:42:48 24° ESE 19:47:17 10° NE
Cosmos 2322 Rocket 2.6 19:38:29 10° NNW 19:44:00 54° WSW 19:45:40 40° SSW
SL-27 R/B 4.1 19:48:09 22° WNW 19:48:09 22° WNW 19:50:23 10° N
USA 281 3.1 19:45:53 41° SSE 19:48:26 89° WSW 19:55:04 10° NNW
Cosmos 2297 Rocket 4.0 19:49:37 16° E 19:49:37 16° E 19:52:36 10° ENE
Okean 2 3.3 19:49:06 68° WSW 19:49:22 71° W 19:53:22 10° N
Nadezhda 1 Rocket 4.3 19:44:22 10° N 19:50:34 56° ENE 19:52:29 41° SE
PSLV R/B 3.7 19:46:50 10° NNE 19:50:50 87° ESE 19:50:53 86° SE
SJ 16-02 1.8 19:52:10 40° WSW 19:53:20 54° WNW 19:57:35 10° N
Cosmos 1386 Rocket 4.5 19:55:01 46° SSE 19:56:57 73° E 20:03:11 10° NNE
COSMOS 2428 3.6 19:56:48 10° NNW 20:02:11 41° ENE 20:04:17 30° ESE
GP-B 3.1 20:02:39 10° N 20:07:03 69° W 20:07:27 64° WSW
Cosmos 1814 Rocket 4.3 20:03:44 10° NNW 20:08:55 57° WSW 20:09:50 49° SW
Cosmos 2219 Rocket 2.1 20:07:15 10° NNW 20:12:56 80° WSW 20:14:05 58° S
SL-4 R/B 4.4 20:12:30 10° NW 20:15:48 23° N 20:19:14 10° ENE
Cosmos 1315 Rocket 4.0 20:15:49 32° W 20:16:22 33° WNW 20:20:01 10° N
Cosmos 1408 4.2 20:18:10 24° NNE 20:18:10 24° NNE 20:19:33 10° NNE
Cosmos 2208 Rocket 4.4 20:12:32 10° N 20:17:37 53° ENE 20:18:40 45° ESE
Cosmos 1908 Rocket 3.9 20:13:25 10° NNW 20:17:39 52° W 20:17:48 52° WSW
ATLAS CENTAUR R/B 3.7 20:17:29 10° W 20:19:58 18° NW 20:22:29 10° N
Cosmos 1782 Rocket 3.4 20:15:47 10° N 20:20:05 81° ENE 20:20:05 81° ENE
Spot 2 4.5 20:19:36 59° ESE 20:20:22 69° ENE 20:25:26 10° N
Cosmos 371 Rocket 4.0 20:21:55 38° E 20:21:55 38° E 20:26:02 10° NE
Cosmos 158 Rocket 4.4 20:16:24 10° N 20:21:36 53° ENE 20:22:41 45° ESE
H-2A R/B 2.6 20:23:31 66° W 20:23:31 66° W 20:27:45 10° NNW
Spot 4 3.7 20:24:31 72° SSW 20:24:55 80° WSW 20:29:44 10° NNW
CENTAUR R/B 4.3 20:26:03 12° E 20:26:03 12° E 20:28:05 10° ENE
CZ-4C R/B 2.7 20:26:41 34° E 20:26:41 34° E 20:30:31 10° NE
Cosmos 1953 3.5 20:22:34 10° NNW 20:25:44 32° W 20:25:44 32° W
Cosmos 1455 3.7 20:27:32 10° NNW 20:29:57 27° WNW 20:29:57 27° WNW
ALOS 2 2.5 20:34:29 88° WNW 20:34:29 88° WNW 20:38:53 10° NNW
Cosmos 2360 Rocket 3.5 20:30:56 10° NW 20:35:32 26° WSW 20:36:22 25° WSW
Cosmos 1709 Rocket 4.0 20:35:43 53° S 20:37:23 86° E 20:43:48 10° N
Cosmos 2333 Rocket 3.5 20:35:38 10° NW 20:40:21 27° WSW 20:41:09 26° WSW
Cosmos 1300 Rocket 3.6 20:38:17 10° NNW 20:42:21 67° WNW 20:42:21 67° WNW
Atlas Centaur 2 4.4 20:40:50 10° WSW 20:43:36 18° SW 20:43:36 18° SW
H-2A R/B 2.6 20:43:03 10° NNE 20:46:41 45° ENE 20:46:41 45° ENE
Cosmos 1674 Rocket 4.4 20:57:19 39° E 20:57:19 39° E 21:01:09 10° NNE
NOSS 0 Rocket 4.0 20:51:17 10° NNW 20:57:33 76° ENE 20:59:24 48° SE
Cosmos 2098 Rocket 4.1 20:51:54 10° N 20:58:32 75° E 21:00:17 51° SSE
Cosmos 1486 Rocket 3.9 20:57:52 64° SW 20:58:35 76° WNW 21:03:48 10° NNE
Meteor 1-24 Rocket 3.7 20:57:42 61° S 20:58:47 85° E 21:04:31 10° N
Cosmos 2242 Rocket 4.0 20:58:56 53° W 20:59:08 54° W 21:03:37 10° N
Cosmos 1378 Rocket 4.0 21:00:11 50° E 21:00:11 50° E 21:04:09 10° NNE
Sich 1 Rocket 4.3 20:58:33 10° N 21:02:44 41° ENE 21:02:55 41° E
Cosmos 2322 4.0 21:01:41 10° NW 21:07:09 50° WSW 21:07:35 49° WSW
ATLAS 2AS CENTAUR R/B 3.7 21:01:57 10° NW 21:07:23 27° WSW 21:07:52 26° WSW
Cosmos 2237 Rocket 2.7 21:03:08 10° NNW 21:08:43 55° ENE 21:10:35 38° ESE
Cosmos 1354 Rocket 4.0 21:10:53 62° SE 21:11:20 65° ESE 21:16:36 10° NNE
Cosmos 2227 Rocket 2.8 21:11:48 40° ESE 21:12:17 41° ESE 21:17:34 10° NE
Cosmos 332 Rocket 4.3 21:14:14 45° ESE 21:14:14 45° ESE 21:18:53 10° NNE
BlueWalker 3 2.8 21:15:45 46° NNW 21:15:45 46° NNW 21:19:18 10° NE
Cosmos 1825 3.4 21:18:06 34° NE 21:18:06 34° NE 21:20:22 10° NNE
Cosmos 304 Rocket 3.7 21:17:27 68° W 21:17:46 71° WNW 21:22:32 10° NNE
Cosmos 1980 3.8 21:15:43 10° NNW 21:21:24 74° ENE 21:22:52 50° SE
Meteor 2-5 Rocket 4.0 21:21:05 48° SW 21:22:28 62° WNW 21:28:19 10° N
Cosmos 405 Rocket 3.2 21:18:42 10° N 21:21:42 55° NNW 21:21:42 55° NNW
COSMOS 2455 3.2 21:25:53 37° WSW 21:28:05 58° NW 21:34:03 10° NNE
Cosmos 2219 4.2 21:30:51 30° ESE 21:31:37 32° ESE 21:36:31 10° NE
Cosmos 2297 Rocket 2.2 21:31:24 53° SW 21:32:39 72° WNW 21:38:19 10° NNE
Cosmos 2181 Rocket 4.0 21:29:51 10° NNW 21:36:02 70° W 21:37:25 53° SSW
CZ-2D R/B 4.4 21:39:13 10° ENE 21:41:40 13° E 21:43:55 10° ESE
COSMOS 2428 3.7 21:41:22 10° NW 21:46:13 30° WSW 21:46:15 30° WSW
GEOS 3 Rocket 4.4 21:43:21 10° NNE 21:48:16 46° NW 21:50:25 29° W
Okean 1 Rocket 2.9 21:45:06 10° N 21:49:28 86° E 21:49:33 85° ESE
IDEFIX/ARIANE 42P 4.2 21:46:18 10° NE 21:50:21 22° E 21:52:03 19° ESE
Cosmos 2074 Rocket 3.9 21:48:57 51° SSW 21:50:37 76° W 21:56:51 10° N
SL-4 R/B 2.7 21:51:07 10° NW 21:55:14 55° NNE 21:59:32 10° ESE
Cosmos 2219 Rocket 4.4 21:55:36 10° W 21:55:47 10° W 21:55:47 10° W
Aureole 1 Rocket 3.9 21:58:48 31° E 21:58:48 31° E 22:01:47 10° NE
Cosmos 1892 4.0 22:04:19 29° NW 22:04:19 29° NW 22:06:51 10° NNW
Cosmos 990 Rocket 3.8 22:08:52 60° SSW 22:09:49 88° WNW 22:14:59 10° NNE
Cosmos 2263 Rocket 2.7 22:08:47 38° SE 22:10:10 46° ESE 22:15:28 10° NE
Cosmos 1975 Rocket 3.4 22:12:24 50° SE 22:12:59 54° E 22:17:16 10° NNE
MOZ.5/SAFIR/RUBIN 5/SL-8 4.5 22:11:15 32° SE 22:13:02 49° ENE 22:17:31 10° N
CZ-4C R/B 3.4 22:11:44 19° W 22:14:14 30° NW 22:19:10 10° NNE
CENTAUR R/B 2.3 22:13:10 49° SSW 22:14:51 88° SE 22:21:41 10° NE
SL-12 R/B(2) 4.2 22:12:48 36° SW 22:16:40 89° NW 22:26:16 10° NE
Cosmos 1538 Rocket 4.1 22:12:08 10° NNW 22:17:20 74° ENE 22:19:21 38° SE
Okean 2 Rocket 4.4 22:16:34 10° NNW 22:20:12 27° W 22:20:12 27° W
Helios 1A Rocket 2.6 22:21:09 85° WNW 22:21:09 85° WNW 22:24:56 10° NNW
ADEOS II 4.0 22:17:57 10° NE 22:21:47 20° E 22:24:41 13° SE
H-2A R/B 4.1 22:19:51 10° NNW 22:22:28 16° WNW 22:23:29 15° W
Nadezhda 3 Rocket 4.1 22:22:07 10° NNW 22:28:15 59° W 22:30:15 41° SSW
Resurs 1-4 Rocket 3.1 22:24:17 10° NNE 22:29:10 37° E 22:31:27 26° SE
Cosmos 1455 Rocket 3.0 22:24:44 10° N 22:29:11 85° W 22:29:56 62° S
EXPRESS MD2 3.1 22:33:59 60° NNE 22:33:59 60° NNE 22:37:55 10° ESE
BREEZE-M DEB (TANK) 2.1 22:34:22 10° WNW 22:38:47 63° NNE 22:39:09 54° ENE
Cosmos 2366 rocket 4.2 22:36:09 31° SSE 22:39:17 66° E 22:45:30 10° NNE
In-Cosmos 22 Rocket 4.2 22:37:24 42° SSW 22:39:31 87° W 22:45:22 10° N
SL-16 R/B 2.1 22:38:11 10° NNW 22:43:54 86° WSW 22:47:05 28° SSE
COBE Rocket 3.9 22:41:11 10° N 22:46:21 84° WNW 22:48:09 42° SSW
Cosmos 372 Rocket 4.0 22:45:57 42° S 22:47:46 78° ESE 22:53:00 10° NNE
ALOS 4.4 22:46:28 10° NE 22:49:42 19° E 22:52:55 10° SE
SL-16 R/B 4.1 22:44:20 10° SE 22:49:51 34° ENE 22:55:21 10° N
Cosmos 1025 Rocket 4.2 22:49:51 27° W 22:50:31 28° WNW 22:54:17 10° NNW
Meteor 1-11 4.2 22:49:40 37° SSW 22:52:06 85° W 22:57:57 10° N
Cosmos 2237 Rocket 3.5 22:48:07 10° NW 22:52:17 21° W 22:52:21 21° WSW
Cosmos 2082 3.6 22:50:17 39° SSW 22:52:29 85° WNW 22:58:08 10° NNE
NOSS 3-2 (A) 3.1 22:51:17 38° SW 22:53:21 75° NW 22:59:22 10° NNE
Cosmos 292 Rocket 4.0 22:53:34 40° WSW 22:54:59 58° WNW 22:59:44 10° NNE
Cosmos 2227 Rocket 3.5 22:53:35 20° W 22:56:25 31° NW 23:01:25 10° N
Cosmos 1898 Rocket 3.5 22:54:42 40° SW 22:56:33 75° WNW 23:01:45 10° NNE
Cosmos 1606 2.6 22:53:05 10° N 22:56:40 74° E 22:57:26 51° SSE
Cosmos 1937 Rocket 3.5 22:54:42 38° S 22:56:47 81° ESE 23:02:04 10° NNE
NOSS 3-2 (C) 3.5 22:55:51 33° S 22:57:52 53° ESE 23:03:35 10° NE
H-2A R/B 3.2 22:56:00 10° NNE 23:00:00 87° ESE 23:01:02 49° S
Cosmos 1943 4.3 22:55:44 10° NNW 23:01:04 43° ENE 23:06:22 10° SE
Cosmos 546 4.4 22:58:47 10° WNW 23:02:39 78° SW 23:06:31 10° SE
USA 267 3.5 22:59:23 10° NE 23:05:47 55° SE 23:09:14 28° SSW
Cosmos 1869 3.0 23:06:01 10° NNW 23:09:42 72° W 23:10:33 50° SSW
CZ-2C R/B 2.5 23:06:56 23° SSE 23:10:21 90° NNW 23:15:44 10° NNW
SL-8 Rocket 4.1 23:09:19 30° SSW 23:12:19 61° W 23:18:27 10° N
Cosmos 2219 4.1 23:12:45 23° WSW 23:15:37 38° WNW 23:20:51 10° N
FENGYUN 3A 3.9 23:12:04 10° NNE 23:17:24 63° ESE 23:20:54 22° S
Cosmos 2297 Rocket 4.5 23:15:10 10° WNW 23:17:44 13° NW 23:20:20 10° NNW
Cosmos 1818 3.8 23:13:31 10° NNW 23:19:00 70° NE 23:24:26 10° SE
Iridium 921 4.4 23:18:42 49° SW 23:19:24 64° W 23:22:50 10° N
Cosmos 1437 Rocket 3.4 23:19:36 24° SSE 23:21:36 48° E 23:25:18 10° NNE
CZ-2D R/B 2.1 23:16:56 10° N 23:22:18 78° WNW 23:25:12 27° SSW
Cosmos 2227 4.4 23:20:57 25° S 23:24:21 67° ESE 23:30:04 10° NNE
CZ-2C R/B 3.1 23:21:55 10° NNE 23:27:25 83° WNW 23:30:31 25° SSW
Cosmos 1680 Rocket 3.4 23:23:37 10° NNW 23:28:50 82° WSW 23:33:48 11° SSE
Meteor 1-28 Rocket 3.7 23:26:28 14° SSE 23:29:19 54° ENE 23:32:48 10° N
Cosmos 1727 Rocket 4.1 23:23:01 10° N 23:29:23 80° E 23:35:44 10° S
Cosmos 2112 Rocket 4.0 23:24:46 10° NNW 23:29:59 87° ENE 23:35:10 10° SSE
IDEFIX/ARIANE 42P 3.1 23:25:04 10° N 23:30:04 46° WNW 23:32:47 25° SW
NPP 4.2 23:27:17 10° N 23:32:26 47° WNW 23:35:24 24° SW
SL-4 R/B 2.9 23:30:07 10° WNW 23:33:53 30° SW 23:34:12 30° SW
Cosmos 1544 Rocket 4.2 23:36:10 10° NNW 23:40:18 39° W 23:42:10 26° SW
MSX 4.3 23:36:06 10° N 23:41:34 47° WNW 23:45:07 21° SW
Meteor 1-27 4.3 23:43:57 10° NNW 23:49:46 71° W 23:55:30 10° S
Cosmos 2263 Rocket 3.5 23:50:27 14° WSW 23:54:15 27° NW 23:58:59 10° N
Iridium 2 4.0 23:53:48 14° SSE 23:55:41 35° E 23:58:00 10° NNE
